AirNav   Jet Aviation Boston
 
 930 users online  

23D Karlstad Municipal Airport
Karlstad, Minnesota, USA

GOING TO KARLSTAD?


FAA INFORMATION EFFECTIVE 19 JULY 2018

Location

FAA Identifier: 23D
Lat/Long: 48-34-39.3650N / 096-32-28.5650W
48-34.656083N / 096-32.476083W
48.5776014 / -96.5412681
(estimated)
Elevation: 1025 ft. / 312 m (estimated)
Variation: 06E (1985)
From city: 1 mile W of KARLSTAD, MN
Time zone: UTC -5 (UTC -6 during Standard Time)
Zip code: 56732

Airport Operations

Airport use: Open to the public
Activation date: 03/1957
Control tower: no
ARTCC: MINNEAPOLIS CENTER
FSS: PRINCETON FLIGHT SERVICE STATION
NOTAMs facility: PNM (NOTAM-D service available)
Attendance: UNATNDD
Wind indicator: lighted
Segmented circle: no
Lights: SS-SR

Airport Communications

CTAF: 122.9
WX AWOS-3 at HCO (19 nm NW): 126.475 (218-843-2415)

Nearby radio navigation aids

VOR radial/distance  VOR name  Freq  Var
HMLr119/28.7HUMBOLDT VORTAC112.4009E
TVFr327/33.6THIEF RIVER FALLS VOR/DME108.4008E
ROXr239/37.4ROSEAU VOR/DME108.8005E

 
NDB name  Hdg/Dist  Freq  Var  ID
PINEY PINECREEK217/33.434205EPFT .--. ..-. -

Airport Services

Parking: tiedowns

Runway Information

Runway 17/35

Dimensions: 2606 x 159 ft. / 794 x 48 m
Surface: turf, in good condition
Runway edge lights: non-standard
RWY 17/35 NSTD LIRL; 400 FEET BETWEEN LIGHTS.
Runway edge markings: 17/35 MKD WITH YELLOW CONES.
RUNWAY 17  RUNWAY 35
Latitude: 48-34.870100N48-34.442050N
Longitude: 096-32.488017W096-32.464150W
Elevation: 1025.0 ft.1023.2 ft.
Gradient: 0.1%0.1%
Traffic pattern: leftleft
Obstructions: 20 ft. tree, 172 ft. from runway, 132 ft. left of centerline, 8:1 slope to clear14 ft. road, 135 ft. from runway, 130 ft. left of centerline, 9:1 slope to clear
RY 35 ROAD: SIGNS POSTED TO CONTROL TFC.

Airport Ownership and Management from official FAA records

Ownership: Publicly-owned
Owner: CITY OF KARLSTAD
BOX 299
KARLSTAD, MN 56732
Phone 218-436-2178
Manager: SUE DUFAULT
BOX 299
KARLSTAD, MN 56732
Phone 218-436-2178

Airport Operational Statistics

Aircraft based on the field: 2
Single engine airplanes: 2
    
Aircraft operations: avg 86/week *
56% transient general aviation
44% local general aviation
* for 12-month period ending 30 June 2015

Instrument Procedures

There are no published instrument procedures at 23D.

Some nearby airports with instrument procedures:

KHCO - Hallock Municipal Airport (19 nm NW)
D37 - Warren Municipal Airport (24 nm S)
48Y - Piney Pinecreek Border Airport (34 nm NE)
KTVF - Thief River Falls Regional Airport (34 nm SE)
KGAF - Hutson Field Airport (35 nm W)
 
Loc | Ops | Rwys | IFR | FBO | Links
Com | Nav | Svcs | Stats | Notes


 
Area around 23D (Karlstad Municipal Airport)
 
Road maps at: MapQuest Bing Google
 
Aerial photo
No photo
 
Sectional chart

 
Airport distance calculator
Flying to Karlstad Municipal Airport? Find the distance to fly.

From to 23D

Sunrise and sunset
Times for 21-Jul-2018
 Local
(UTC-5)
 Zulu
(UTC)
Morning civil twilight05:0910:09
Sunrise05:4810:48
Sunset21:1702:17
Evening civil twilight21:5602:56

Current date and time
Zulu (UTC)  22-Jul-2018 01:26:16
Local (UTC-5)  21-Jul-2018 20:26:16
 
METAR
KHCO 
19nm NW 
220115Z AUTO 08006KT 10SM SCT055 22/18 A3011 RMK AO2
KTVF 
34nm SE 
220056Z AUTO 08004KT 10SM BKN047 22/17 A3012 RMK AO2 SLP200 T02170167
KGAF 
35nm W 
220115Z AUTO 09007KT 10SM CLR 22/18 A3011 RMK AO2 PWINO
KROX 
37nm NE 
220115Z AUTO 00000KT 10SM BKN050 21/18 A3014 RMK AO2
TAF
KTVF 
34nm SE 
212041Z 2121/2218 06007KT P6SM BKN040 FM220100 08006KT P6SM SCT040 FM221300 14007KT P6SM SCT060 FM221600 15008KT P6SM BKN070
NOTAMs
Click for the latest NOTAMs
NOTAMs are issued by the DoD/FAA and will open in a separate window not controlled by AirNav.

 

 
 

Would you like to see your business listed on this page?

 If your business provides an interesting product or service to pilots, flight crews, aircraft, or users of the Karlstad Municipal Airport, you should consider listing it here.  To start the listing process, click on the button below
 
Add a business
 

Other Pages about Karlstad Municipal Airport

Update a link
 
Copyright © AirNav, LLC. All rights reserved. Privacy Policy  Contact